TimeEDT,TemperatureF,Dew PointF,Humidity,Sea Level PressureIn,VisibilityMPH,Wind Direction,Wind SpeedMPH,Gust SpeedMPH,PrecipitationIn,Events,Conditions,WindDirDegrees,DateUTC
12:00 AM,41.0,32.0,70,29.91,-9999.0,Calm,Calm,-,N/A,,Overcast,0,2013-03-17 04:00:00
12:31 AM,39.2,32.0,75,29.92,-9999.0,Calm,Calm,-,N/A,,Overcast,0,2013-03-17 04:31:00
12:45 AM,41.0,32.0,70,29.92,-9999.0,Calm,Calm,-,N/A,,Overcast,0,2013-03-17 04:45:00
1:00 AM,37.9,32.0,79,29.92,-9999.0,Calm,Calm,-,N/A,,Overcast,0,2013-03-17 05:00:00
1:12 AM,37.4,32.0,81,29.92,-9999.0,Calm,Calm,-,N/A,,Overcast,0,2013-03-17 05:12:00
1:33 AM,37.4,32.0,81,29.92,-9999.0,Calm,Calm,-,N/A,,Overcast,0,2013-03-17 05:33:00
2:00 AM,35.6,32.0,87,29.91,-9999.0,Calm,Calm,-,N/A,,Mostly Cloudy,0,2013-03-17 06:00:00
2:06 AM,37.0,30.9,79,29.91,-9999.0,Calm,Calm,-,N/A,,Scattered Clouds,0,2013-03-17 06:06:00
3:00 AM,37.9,30.0,73,29.93,-9999.0,Calm,Calm,-,N/A,,Mostly Cloudy,0,2013-03-17 07:00:00
3:22 AM,-9999,-9999,N/A,-9999,-9999.0,North,-9999.0,-,N/A,,Unknown,0,2013-03-17 07:22:00
4:00 AM,39.0,28.9,67,29.96,-9999.0,NW,4.6,-,N/A,,Clear,310,2013-03-17 08:00:00
5:00 AM,33.1,28.0,82,29.97,-9999.0,Calm,Calm,-,N/A,,Clear,0,2013-03-17 09:00:00
6:00 AM,30.9,27.0,85,30.00,-9999.0,Calm,Calm,-,N/A,,Clear,0,2013-03-17 10:00:00
7:00 AM,34.0,25.0,70,30.05,-9999.0,West,3.5,-,N/A,,Clear,280,2013-03-17 11:00:00
9:00 AM,39.0,25.0,57,30.12,-9999.0,NNW,9.2,-,N/A,,Clear,340,2013-03-17 13:00:00
10:00 AM,39.0,21.9,50,30.12,-9999.0,NNW,9.2,-,N/A,,Clear,330,2013-03-17 14:00:00
11:00 AM,43.0,19.9,40,30.12,-9999.0,NW,9.2,18.4,N/A,,Clear,320,2013-03-17 15:00:00
12:00 PM,43.0,19.0,38,30.14,-9999.0,NNW,8.1,16.1,N/A,,Clear,340,2013-03-17 16:00:00
2:00 PM,45.0,18.0,34,30.15,-9999.0,NW,8.1,17.3,N/A,,Clear,310,2013-03-17 18:00:00
2:09 PM,-9999,-9999,N/A,-9999,-9999.0,North,-9999.0,-,N/A,,Unknown,0,2013-03-17 18:09:00
3:00 PM,48.9,19.0,31,30.14,-9999.0,Variable,6.9,17.3,N/A,,Partly Cloudy,0,2013-03-17 19:00:00
4:00 PM,48.0,19.0,32,30.15,-9999.0,NW,10.4,-,N/A,,Clear,310,2013-03-17 20:00:00
5:00 PM,46.9,19.0,33,30.15,-9999.0,NW,8.1,-,N/A,,Clear,310,2013-03-17 21:00:00
6:00 PM,42.1,16.0,35,30.18,-9999.0,NNW,5.8,-,N/A,,Clear,340,2013-03-17 22:00:00
7:00 PM,42.1,16.0,35,30.20,-9999.0,NW,4.6,-,N/A,,Clear,310,2013-03-17 23:00:00
8:00 PM,41.0,17.1,38,30.23,-9999.0,Calm,Calm,-,N/A,,Clear,0,2013-03-18 00:00:00
9:00 PM,34.0,17.1,50,30.26,-9999.0,Calm,Calm,-,N/A,,Clear,0,2013-03-18 01:00:00
10:00 PM,32.0,19.0,59,30.28,-9999.0,Calm,Calm,-,N/A,,Clear,0,2013-03-18 02:00:00
11:00 PM,32.0,19.9,61,30.29,-9999.0,Calm,Calm,-,N/A,,Clear,0,2013-03-18 03:00:00